WX7EM Weather Reports


Display with metric or nautical units.
time (UTC)temp
F
wind
direction
speed
MPH
gust
MPH
rain 1hr
in
rain 24hr
in
rain mn
in
humidity
%
barometer
mb
20260505210510 62 128 0.0 2.0 0.00 0.00 0.00 75 1015.7
20260505210007 61 258 5.0 6.0 0.00 0.00 0.00 76 1015.7
20260505205506 61 257 5.0 6.0 0.00 0.00 0.00 76 1015.6
20260505205002 61 215 4.0 6.0 0.00 0.00 0.00 76 1015.8
20260505204500 60 273 3.0 4.0 0.00 0.00 0.00 77 1015.8
20260505203957 60 268 4.0 4.0 0.00 0.00 0.00 76 1015.9
20260505203453 60 240 4.0 6.0 0.00 0.00 0.00 77 1015.9
20260505202950 61 192 2.0 4.0 0.00 0.00 0.00 77 1015.7
20260505202447 61 272 3.0 3.0 0.00 0.00 0.00 75 1015.7
20260505201942 60 241 3.0 4.0 0.00 0.00 0.00 77 1015.7
20260505201439 61 168 1.0 3.0 0.00 0.00 0.00 76 1015.8
20260505200938 60 245 2.0 2.0 0.00 0.00 0.00 77 1016.0
20260505200435 60 141 1.0 2.0 0.00 0.00 0.00 77 1015.9
20260505195930 60 134 1.0 3.0 0.00 0.00 0.00 78 1015.8
20260505195428 60 226 1.0 4.0 0.00 0.00 0.00 79 1015.9
20260505194925 59 279 4.0 6.0 0.00 0.00 0.00 78 1016.0
20260505194423 59 252 1.0 6.0 0.00 0.00 0.00 80 1016.0
20260505193922 59 274 3.0 4.0 0.00 0.00 0.00 78 1016.1
20260505193420 59 272 3.0 3.0 0.00 0.00 0.00 78 1015.9
20260505192918 59 171 1.0 3.0 0.00 0.00 0.00 79 1015.8
20260505192416 60 223 1.0 3.0 0.00 0.00 0.00 79 1015.9
20260505191913 60 255 2.0 4.0 0.00 0.00 0.00 78 1016.1
20260505191412 60 143 1.0 1.0 0.00 0.00 0.00 76 1016.0
20260505190908 60 100 0.0 1.0 0.00 0.00 0.00 77 1015.8
20260505190404 60 149 1.0 2.0 0.00 0.00 0.00 77 1015.8
20260505185859 60 64 1.0 2.0 0.00 0.00 0.00 77 1016.0
20260505185356 60 315 2.0 2.0 0.00 0.00 0.00 77 1016.0
20260505184852 59 100 0.0 2.0 0.00 0.00 0.00 78 1016.1
20260505184349 59 188 2.0 2.0 0.00 0.00 0.00 77 1015.9
20260505183846 60 175 1.0 1.0 0.00 0.00 0.00 77 1015.8
20260505183343 59 105 1.0 2.0 0.00 0.00 0.00 77 1015.8
20260505182840 59 143 0.0 2.0 0.00 0.00 0.00 79 1015.7
20260505182336 58 211 2.0 3.0 0.00 0.00 0.00 78 1015.8
20260505181833 58 247 3.0 4.0 0.00 0.00 0.00 79 1015.8
20260505181459 59 336 0.0 2.0 0.00 0.00 0.00 77 1015.8
20260505181331 58 124 0.0 2.0 0.00 0.00 0.00 80 1015.8
20260505180827 58 211 2.0 3.0 0.00 0.00 0.00 79 1015.9
20260505180324 58 152 1.0 1.0 0.00 0.00 0.00 80 1015.8
20260505175820 58 200 2.0 2.0 0.00 0.00 0.00 80 1015.7
20260505175317 58 173 1.0 2.0 0.00 0.00 0.00 80 1015.7
20260505174813 58 165 1.0 1.0 0.00 0.00 0.00 80 1015.8
20260505174311 58 153 1.0 2.0 0.00 0.00 0.00 80 1015.7
20260505173806 58 118 0.0 1.0 0.00 0.00 0.00 80 1015.8
20260505173303 58 125 0.0 1.0 0.00 0.00 0.00 80 1015.5
20260505172800 57 127 0.0 1.0 0.00 0.00 0.00 82 1015.5
20260505172257 57 135 1.0 3.0 0.00 0.00 0.00 82 1015.8
20260505171752 57 113 0.0 1.0 0.00 0.00 0.00 82 1015.7
20260505171249 57 125 0.0 2.0 0.00 0.00 0.00 81 1015.6
20260505170746 57 236 2.0 3.0 0.00 0.00 0.00 82 1015.6
20260505170526 58 273 1.0 3.0 0.00 0.00 0.00 80 1015.5
20260505170244 57 144 1.0 3.0 0.00 0.00 0.00 82 1015.5
20260505165744 57 203 1.0 2.0 0.00 0.00 0.00 83 1015.6
20260505165240 57 132 1.0 2.0 0.00 0.00 0.00 82 1015.5
20260505164736 57 84 1.0 1.0 0.00 0.00 0.00 82 1015.5
20260505164233 57 105 0.0 2.0 0.00 0.00 0.00 83 1015.7
20260505163731 57 81 0.0 2.0 0.00 0.00 0.00 83 1015.7
20260505163230 57 86 2.0 3.0 0.00 0.00 0.00 83 1015.7
20260505162726 57 131 1.0 1.0 0.00 0.00 0.00 83 1015.5
20260505162223 56 44 1.0 2.0 0.00 0.00 0.00 84 1015.5
20260505161720 57 137 1.0 1.0 0.00 0.00 0.00 84 1015.7
20260505161218 56 159 1.0 1.0 0.00 0.00 0.00 84 1015.6
20260505160715 56 166 1.0 2.0 0.00 0.00 0.00 85 1015.5
20260505160213 56 139 1.0 1.0 0.00 0.00 0.00 86 1015.4
20260505153152 55 141 0.0 2.0 0.00 0.00 0.00 87 1015.8
20260505152649 55 121 1.0 1.0 0.00 0.00 0.00 87 1015.5
20260505152144 55 204 3.0 4.0 0.00 0.00 0.00 87 1015.5
20260505151640 55 190 1.0 2.0 0.00 0.00 0.00 88 1015.5
20260505151137 55 134 1.0 2.0 0.00 0.00 0.00 88 1015.5
20260505150633 55 180 1.0 3.0 0.00 0.00 0.00 88 1015.4
20260505150131 54 148 1.0 2.0 0.00 0.00 0.00 89 1015.3
20260505140559 53 145 1.0 2.0 0.00 0.00 0.00 92 1015.0
20260505125012 53 202 1.0 2.0 0.00 0.00 0.00 92 1014.8
20260505124509 53 137 1.0 1.0 0.00 0.00 0.00 92 1014.6
20260505124005 53 174 1.0 2.0 0.00 0.00 0.00 93 1014.4
20260505123502 53 135 0.0 2.0 0.00 0.00 0.00 93 1014.4
20260505122958 53 140 1.0 1.0 0.00 0.00 0.00 93 1014.5
20260505122455 53 140 0.0 1.0 0.00 0.00 0.00 93 1014.4
20260505121952 53 134 0.0 1.0 0.00 0.00 0.00 93 1014.7
20260505121449 53 148 1.0 1.0 0.00 0.00 0.00 93 1014.4
20260505120945 53 147 0.0 1.0 0.00 0.00 0.00 94 1014.6
20260505120441 53 158 1.0 2.0 0.00 0.00 0.00 94 1014.3
20260505115941 53 145 0.0 2.0 0.00 0.00 0.00 94 1014.3
20260505115437 53 140 1.0 2.0 0.00 0.00 0.00 94 1014.3
20260505114935 53 177 2.0 3.0 0.00 0.00 0.00 93 1014.3
20260505114431 53 179 1.0 2.0 0.00 0.00 0.00 93 1014.2
20260505113928 53 145 1.0 2.0 0.00 0.00 0.00 93 1014.3
20260505113424 53 130 0.0 1.0 0.00 0.00 0.00 92 1014.4
20260505112920 54 120 1.0 2.0 0.00 0.00 0.00 91 1014.3
20260505112418 54 130 1.0 2.0 0.00 0.00 0.00 90 1014.6
20260505111914 54 139 2.0 2.0 0.00 0.00 0.00 90 1014.5
20260505111409 54 139 0.0 1.0 0.00 0.00 0.00 90 1014.2
20260505110905 54 126 0.0 0.0 0.00 0.00 0.00 89 1014.3
20260505110402 54 162 1.0 1.0 0.00 0.00 0.00 89 1014.3
20260505101833 54 168 1.0 2.0 0.00 0.00 0.00 89 1014.2
20260505101328 54 181 2.0 3.0 0.00 0.00 0.00 89 1014.1
20260505100824 54 149 2.0 3.0 0.00 0.00 0.00 88 1014.1
20260505100321 54 190 2.0 4.0 0.00 0.00 0.00 88 1013.9
20260505095816 54 150 1.0 1.0 0.00 0.00 0.00 88 1013.9
20260505095314 54 187 2.0 4.0 0.00 0.00 0.00 88 1014.1
20260505094810 54 194 1.0 4.0 0.00 0.00 0.00 88 1013.9
20260505094307 54 158 2.0 4.0 0.00 0.00 0.00 88 1013.9
20260505093802 54 188 2.0 6.0 0.00 0.00 0.00 88 1013.9
20260505093300 54 140 2.0 3.0 0.00 0.00 0.00 88 1013.8
20260505092757 54 123 1.0 2.0 0.00 0.00 0.00 88 1013.8
20260505092255 54 190 2.0 3.0 0.00 0.00 0.00 88 1014.0
20260505091752 54 133 1.0 3.0 0.00 0.00 0.00 88 1014.0
20260505091250 54 191 2.0 7.0 0.00 0.00 0.00 88 1013.9
20260505090748 54 199 5.0 8.0 0.00 0.00 0.00 88 1013.9
20260505090246 54 145 1.0 2.0 0.00 0.00 0.00 88 1013.7
20260505085743 54 134 0.0 4.0 0.00 0.00 0.00 88 1013.8
20260505085241 54 181 2.0 7.0 0.00 0.00 0.00 88 1013.7
20260505084738 54 198 3.0 3.0 0.00 0.00 0.00 88 1013.8
20260505084238 54 132 0.0 1.0 0.00 0.00 0.00 88 1013.8
20260505083734 54 131 0.0 1.0 0.00 0.00 0.00 88 1013.8
20260505083230 54 142 1.0 2.0 0.00 0.00 0.00 87 1013.9
20260505082726 54 189 2.0 3.0 0.00 0.00 0.00 87 1013.9
20260505082224 54 74 2.0 3.0 0.00 0.00 0.00 87 1013.6
20260505081719 54 193 2.0 4.0 0.00 0.00 0.00 87 1013.9
20260505081217 54 146 2.0 6.0 0.00 0.00 0.00 87 1013.7
20260505080714 54 138 1.0 7.0 0.00 0.00 0.00 87 1013.6
20260505080210 54 124 2.0 8.0 0.00 0.00 0.00 87 1013.7
20260505075706 54 198 1.0 3.0 0.00 0.00 0.00 87 1013.7
20260505075203 54 126 1.0 3.0 0.00 0.00 0.00 88 1013.5
20260505074700 54 212 5.0 7.0 0.00 0.00 0.00 88 1013.4
20260505074156 54 203 2.0 3.0 0.00 0.00 0.00 88 1013.7
20260505073655 54 185 2.0 3.0 0.00 0.00 0.00 89 1013.4
20260505073153 54 184 2.0 4.0 0.00 0.00 0.00 89 1013.6
20260505072648 54 114 2.0 4.0 0.00 0.00 0.00 89 1013.7
20260505072145 54 160 1.0 3.0 0.00 0.00 0.00 89 1013.4
20260505071640 54 162 0.0 2.0 0.00 0.00 0.00 89 1013.3
20260505071138 54 155 0.0 2.0 0.00 0.00 0.00 89 1013.5
20260505070635 54 146 0.0 2.0 0.00 0.00 0.00 89 1013.4
20260505070131 54 128 0.0 4.0 0.00 0.00 0.00 89 1013.4
20260505065627 54 157 3.0 6.0 0.00 0.00 0.00 89 1013.5
20260505065124 54 179 1.0 3.0 0.00 0.00 0.00 89 1013.5
20260505064621 54 174 1.0 2.0 0.00 0.00 0.00 89 1013.5
20260505064120 54 184 2.0 3.0 0.00 0.00 0.00 88 1013.4
20260505063617 54 173 1.0 3.0 0.00 0.00 0.00 88 1013.3
20260505063112 55 177 1.0 4.0 0.00 0.00 0.00 88 1013.4
20260505062609 55 191 3.0 7.0 0.00 0.00 0.00 88 1013.5
20260505062106 55 174 2.0 4.0 0.00 0.00 0.00 87 1013.3
20260505061603 55 192 1.0 3.0 0.00 0.00 0.00 87 1013.4
20260505061101 55 194 3.0 4.0 0.00 0.00 0.00 87 1013.5
20260505060559 55 201 4.0 6.0 0.00 0.00 0.00 87 1013.4
20260505060055 55 172 2.0 3.0 0.00 0.00 0.00 87 1013.4
20260505055550 55 190 2.0 3.0 0.00 0.00 0.00 88 1013.5
20260505055048 55 195 2.0 6.0 0.00 0.00 0.00 89 1013.3
20260505054545 55 190 3.0 3.0 0.00 0.00 0.00 88 1013.4
20260505054043 55 177 1.0 3.0 0.00 0.00 0.00 88 1013.4
20260505053539 55 176 2.0 3.0 0.00 0.00 0.00 88 1013.5
20260505053036 54 209 4.0 4.0 0.00 0.00 0.00 89 1013.5
20260505052533 54 149 2.0 2.0 0.00 0.00 0.00 89 1013.3
20260505052031 55 159 0.0 1.0 0.00 0.00 0.00 89 1013.1
20260505051527 55 164 0.0 2.0 0.00 0.00 0.00 88 1013.3
20260505051026 55 172 1.0 3.0 0.00 0.00 0.00 87 1013.2
20260505050524 55 159 3.0 7.0 0.00 0.00 0.00 88 1013.3
20260505041451 56 211 3.0 7.0 0.00 0.00 0.00 87 1012.6
20260505040948 56 167 2.0 3.0 0.00 0.00 0.00 86 1012.3
20260505040446 57 170 1.0 7.0 0.00 0.00 0.00 86 1012.4
20260505035942 57 203 5.0 8.0 0.00 0.00 0.00 86 1012.3
20260505035438 57 174 2.0 8.0 0.00 0.00 0.00 86 1012.2
20260505034936 57 195 2.0 6.0 0.00 0.00 0.00 86 1012.3
20260505034432 57 194 2.0 3.0 0.00 0.00 0.00 85 1012.0
20260505033929 58 167 4.0 10.0 0.00 0.00 0.00 85 1012.2
20260505033426 58 160 1.0 6.0 0.00 0.00 0.00 84 1011.8
20260505032924 58 150 1.0 2.0 0.00 0.00 0.00 83 1011.8
20260505032421 59 197 2.0 3.0 0.00 0.00 0.00 82 1011.7
20260505031918 59 154 0.0 8.0 0.00 0.00 0.00 82 1011.5
20260505031414 60 203 6.0 8.0 0.00 0.00 0.00 81 1011.4
20260505030912 60 153 1.0 4.0 0.00 0.00 0.00 81 1011.2
20260505030407 61 188 2.0 3.0 0.00 0.00 0.00 81 1011.2
20260505025903 61 220 4.0 6.0 0.00 0.00 0.00 80 1011.1
20260505025401 62 184 6.0 7.0 0.00 0.00 0.00 79 1011.1
20260505024859 63 194 2.0 6.0 0.00 0.00 0.00 78 1011.1
20260505024356 64 251 5.0 8.0 0.00 0.00 0.00 76 1010.9
20260505023853 64 149 1.0 4.0 0.00 0.00 0.00 76 1010.9
20260505023350 64 194 2.0 8.0 0.00 0.00 0.00 76 1010.6
20260505022848 64 188 6.0 10.0 0.00 0.00 0.00 75 1010.8
20260505022344 65 206 4.0 9.0 0.00 0.00 0.00 75 1010.9
20260505021842 65 156 2.0 3.0 0.00 0.00 0.00 74 1010.9
20260505021338 65 235 2.0 3.0 0.00 0.00 0.00 75 1010.7
20260505020834 65 209 3.0 8.0 0.00 0.00 0.00 75 1010.7
20260505020330 66 180 3.0 7.0 0.00 0.00 0.00 74 1010.7
20260505015827 66 255 4.0 7.0 0.00 0.00 0.00 73 1010.5
20260505015324 67 203 3.0 4.0 0.00 0.00 0.00 72 1010.7
20260505014821 67 195 1.0 4.0 0.00 0.00 0.00 72 1010.5
20260505014318 67 186 3.0 9.0 0.00 0.00 0.00 71 1010.6
20260505013814 68 214 4.0 7.0 0.00 0.00 0.00 71 1010.5
20260505013312 68 179 2.0 8.0 0.00 0.00 0.00 70 1010.6
20260505012810 68 213 6.0 8.0 0.00 0.00 0.00 70 1010.8
20260505012308 68 198 2.0 7.0 0.00 0.00 0.00 70 1010.7
20260505011803 68 196 5.0 8.0 0.00 0.00 0.00 70 1010.8
20260505011300 68 184 5.0 7.0 0.00 0.00 0.00 70 1010.9
20260505010756 68 221 4.0 6.0 0.00 0.00 0.00 70 1010.9
20260505010252 69 235 2.0 7.0 0.00 0.00 0.00 70 1010.9
20260505005748 69 197 2.0 4.0 0.00 0.00 0.00 69 1010.7
20260505005246 69 200 3.0 8.0 0.00 0.00 0.00 70 1011.0
20260505004743 69 174 3.0 4.0 0.00 0.00 0.00 69 1011.0
20260505004239 69 179 3.0 7.0 0.00 0.00 0.00 69 1010.9
20260505003736 69 207 3.0 10.0 0.00 0.00 0.00 70 1010.9
20260505003234 69 160 2.0 6.0 0.00 0.00 0.00 70 1010.9
20260505002730 69 213 4.0 6.0 0.00 0.00 0.00 70 1010.8
20260505002228 69 207 5.0 7.0 0.00 0.00 0.00 69 1010.9
20260505001725 70 199 5.0 8.0 0.00 0.00 0.00 69 1010.9
20260505001223 69 145 0.0 2.0 0.00 0.00 0.00 70 1010.9
20260505000719 69 185 4.0 10.0 0.00 0.00 0.00 69 1010.8
20260505000218 69 179 2.0 4.0 0.00 0.00 0.00 69 1011.0
20260504235714 68 205 6.0 7.0 0.00 0.00 0.00 69 1011.1
20260504235210 69 209 4.0 6.0 0.00 0.00 0.00 69 1011.1
20260504234707 69 194 1.0 4.0 0.00 0.00 0.00 70 1011.2
20260504234204 68 194 4.0 7.0 0.00 0.00 0.00 70 1011.2
20260504233700 68 214 5.0 8.0 0.00 0.00 0.00 70 1011.2
20260504233156 69 211 6.0 7.0 0.00 0.00 0.00 69 1011.3
20260504232654 68 192 2.0 3.0 0.00 0.00 0.00 70 1011.2
20260504232151 68 175 3.0 7.0 0.00 0.00 0.00 71 1011.3
20260504231647 67 171 5.0 8.0 0.00 0.00 0.00 71 1011.3
20260504231144 68 172 2.0 8.0 0.00 0.00 0.00 70 1011.4
20260504230640 67 183 2.0 3.0 0.00 0.00 0.00 71 1011.4
20260504230139 67 169 5.0 7.0 0.00 0.00 0.00 71 1011.5
20260504225637 68 194 5.0 10.0 0.00 0.00 0.00 71 1011.4
20260504225132 66 256 3.0 3.0 0.00 0.00 0.00 71 1011.5
20260504224630 67 207 3.0 7.0 0.00 0.00 0.00 72 1011.6
20260504224126 67 212 3.0 6.0 0.00 0.00 0.00 72 1011.6
20260504223623 66 198 6.0 7.0 0.00 0.00 0.00 70 1011.9
20260504223119 67 203 6.0 8.0 0.00 0.00 0.00 71 1011.9
20260504222616 66 223 4.0 8.0 0.00 0.00 0.00 73 1011.9
20260504222114 67 227 4.0 8.0 0.00 0.00 0.00 70 1012.2
20260504221611 66 160 2.0 4.0 0.00 0.00 0.00 71 1012.2
20260504221108 66 203 4.0 6.0 0.00 0.00 0.00 72 1012.2
20260504220604 66 225 3.0 6.0 0.00 0.00 0.00 72 1012.3
20260504220101 66 270 2.0 6.0 0.00 0.00 0.00 71 1012.3
20260504215557 65 146 1.0 6.0 0.00 0.00 0.00 72 1012.4
20260504215055 65 169 4.0 6.0 0.00 0.00 0.00 73 1012.5
20260504214550 65 217 2.0 8.0 0.00 0.00 0.00 73 1012.5
20260504214047 65 154 2.0 6.0 0.00 0.00 0.00 73 1012.4
20260504213544 65 135 2.0 4.0 0.00 0.00 0.00 72 1012.6
20260504213041 65 164 3.0 6.0 0.00 0.00 0.00 73 1012.6
20260504212537 64 214 2.0 3.0 0.00 0.00 0.00 73 1012.6
20260504212034 64 150 1.0 7.0 0.00 0.00 0.00 74 1012.7
20260504211531 64 184 2.0 2.0 0.00 0.00 0.00 73 1012.7
20260504211028 64 210 6.0 8.0 0.00 0.00 0.00 73 1012.8